GW2474 Weather Reports


time (UTC)temp
C
wind
direction
speed
KPH
gust
KPH
rain 1hr
cm
rain 24hr
cm
rain mn
cm
humidity
%
barometer
mb
20260506223059 12 277 9.7 20.9 0.00 0.10 0.00 42 1012.3
20260506221556 12 292 9.7 19.3 0.00 0.10 0.00 40 1012.3
20260506214549 12 292 9.7 19.3 0.00 0.10 0.00 40 1012.3
20260506213054 12 284 9.7 25.7 0.00 0.10 0.00 39 1012.3
20260506211556 12 326 8.0 17.7 0.00 0.10 0.00 40 1012.1
20260506210055 12 310 6.4 12.9 0.00 0.10 0.00 42 1012.1
20260506204555 12 309 8.0 14.5 0.00 0.10 0.00 43 1012.0
20260506203100 12 274 8.0 17.7 0.00 0.10 0.00 43 1012.0
20260506201555 12 286 8.0 16.1 0.00 0.10 0.00 41 1012.1
20260506200054 12 24 8.0 16.1 0.00 0.10 0.00 42 1012.1
20260506194556 12 349 12.9 19.3 0.00 0.10 0.00 41 1012.4
20260506193052 12 274 11.3 25.7 0.00 0.10 0.00 42 1012.4
20260506191552 12 292 9.7 24.1 0.00 0.10 0.00 44 1012.6
20260506190055 11 277 9.7 20.9 0.00 0.10 0.00 43 1012.7
20260506184557 11 315 9.7 19.3 0.00 0.10 0.00 43 1012.8
20260506183101 11 286 3.2 22.5 0.00 0.10 0.00 43 1012.7
20260506181602 11 328 9.7 22.5 0.00 0.10 0.00 44 1012.6
20260506180051 11 321 6.4 20.9 0.00 0.10 0.00 41 1012.6
20260506174551 11 341 11.3 24.1 0.00 0.10 0.00 40 1012.9
20260506173120 11 323 11.3 20.9 0.00 0.10 0.00 41 1012.9
20260506171553 10 329 9.7 24.1 0.00 0.10 0.00 43 1013.2
20260506170058 10 319 8.0 22.5 0.00 0.10 0.00 43 1013.2
20260506164549 10 343 8.0 22.5 0.00 0.10 0.00 42 1013.1
20260506163056 11 316 12.9 27.4 0.00 0.10 0.00 42 1013.1
20260506161551 11 309 12.9 27.4 0.00 0.10 0.00 42 1012.9
20260506160107 11 331 14.5 25.7 0.00 0.10 0.00 42 1012.8
20260506154554 10 339 14.5 25.7 0.00 0.10 0.00 42 1012.6
20260506153050 11 319 14.5 29.0 0.00 0.10 0.00 43 1012.5
20260506151549 10 342 9.7 20.9 0.00 0.10 0.00 49 1012.4
20260506150053 10 338 8.0 17.7 0.00 0.10 0.00 50 1012.2
20260506144556 10 270 8.0 16.1 0.00 0.10 0.00 51 1012.0
20260506143055 10 306 9.7 22.5 0.00 0.10 0.00 52 1012.1
20260506141554 10 338 9.7 17.7 0.00 0.10 0.00 51 1012.0
20260506140057 9 335 11.3 19.3 0.00 0.10 0.00 51 1012.0
20260506134549 9 290 9.7 19.3 0.00 0.10 0.00 53 1011.8
20260506133104 8 294 9.7 22.5 0.00 0.10 0.00 52 1011.6
20260506131602 8 360 11.3 19.3 0.00 0.10 0.00 54 1011.5
20260506130057 8 325 8.0 19.3 0.00 0.10 0.00 57 1011.4
20260506124557 8 348 9.7 22.5 0.00 0.10 0.00 58 1011.4
20260506123053 8 348 9.7 24.1 0.00 0.10 0.00 60 1011.3
20260506121552 7 306 6.4 14.5 0.00 0.10 0.00 63 1010.9
20260506120053 7 316 4.8 12.9 0.00 0.10 0.00 66 1010.5
20260506114550 6 331 4.8 9.7 0.00 0.10 0.00 67 1010.3
20260506113054 6 329 1.6 4.8 0.00 0.10 0.00 67 1010.2
20260506111553 7 329 1.6 6.4 0.00 0.10 0.00 67 1010.1
20260506110053 7 330 3.2 8.0 0.00 0.10 0.00 66 1009.9
20260506104557 7 321 4.8 11.3 0.00 0.10 0.00 67 1009.6
20260506103055 7 308 4.8 11.3 0.00 0.10 0.00 67 1009.5
20260506101556 7 321 4.8 9.7 0.00 0.10 0.00 68 1009.4
20260506100054 7 320 3.2 8.0 0.00 0.10 0.00 67 1009.3
20260506094622 7 321 4.8 11.3 0.00 0.10 0.00 67 1009.1
20260506093102 7 320 3.2 6.4 0.00 0.10 0.00 67 1009.1
20260506091602 7 323 1.6 8.0 0.00 0.10 0.00 67 1009.2
20260506090051 7 340 4.8 14.5 0.00 0.10 0.00 67 1009.0
20260506084551 7 336 4.8 8.0 0.00 0.10 0.00 68 1008.7
20260506083050 7 312 3.2 8.0 0.00 0.10 0.00 70 1008.7
20260506081551 7 325 3.2 8.0 0.00 0.10 0.00 74 1008.7
20260506073053 7 0 0.0 3.2 0.00 0.10 0.00 83 1008.5
20260506071551 7 279 1.6 4.8 0.00 0.10 0.00 84 1008.8
20260506061556 7 279 0.0 3.2 0.00 0.10 0.00 85 1009.1
20260506060112 7 279 1.6 3.2 0.00 0.10 0.00 85 1009.3
20260506044610 7 279 1.6 4.8 0.00 0.23 0.00 84 1009.3
20260506043055 7 279 1.6 4.8 0.00 0.23 0.00 84 1009.3
20260506041557 7 298 1.6 4.8 0.00 0.23 0.00 84 1009.3
20260506040057 7 0 0.0 4.8 0.00 0.23 0.00 84 1009.1
20260506034552 7 0 1.6 4.8 0.00 0.36 0.23 84 1009.2
20260506033057 7 298 0.0 4.8 0.00 0.36 0.23 84 1009.2
20260506031559 7 0 0.0 4.8 0.00 0.36 0.23 83 1008.8
20260506030055 7 298 1.6 4.8 0.00 0.36 0.23 83 1008.9
20260506024600 7 0 0.0 3.2 0.00 0.36 0.23 83 1008.8
20260506023058 7 0 0.0 3.2 0.00 0.36 0.23 82 1008.9
20260506021550 7 0 0.0 3.2 0.03 0.36 0.23 82 1008.9
20260506020055 7 0 0.0 3.2 0.03 0.36 0.23 81 1008.8
20260506014550 8 0 0.0 3.2 0.08 0.36 0.23 80 1008.8
20260506013052 8 298 0.0 4.8 0.05 0.33 0.20 78 1008.7
20260506011556 8 298 1.6 4.8 0.08 0.33 0.20 75 1008.6
20260506010054 9 311 1.6 6.4 0.08 0.33 0.20 71 1008.3
20260506004554 10 287 1.6 6.4 0.03 0.28 0.15 66 1008.3
20260506003053 10 352 4.8 11.3 0.03 0.28 0.15 60 1008.3
20260506001601 11 333 3.2 9.7 0.00 0.25 0.13 60 1008.4
20260506000054 11 333 1.6 8.0 0.00 0.25 0.13 62 1008.2
20260505234551 11 321 3.2 8.0 0.00 0.25 0.13 61 1008.1
20260505233048 11 300 1.6 9.7 0.00 0.25 0.13 61 1007.8
20260505231602 11 286 3.2 9.7 0.00 0.25 0.13 62 1007.7
20260505224554 11 279 3.2 8.0 0.00 0.30 0.13 68 1007.8